,

(GMT )
Al Udeid

Weather History for KQIR - May, 2014

Change the Weather History Date:

Sunday, May 4, 2014

  Actual Average Record
Temperature  
Mean Temperature 86 °F -  
Max Temperature 99 °F - - ()
Min Temperature 73 °F - - ()
Cooling Degree Days 21    
Growing Degree Days 36 (Base 50)    
Moisture  
Dew Point 54 °F    
Average Humidity 37    
Maximum Humidity 78    
Minimum Humidity 16    
Precipitation  
Precipitation 0.00 in - - ()
Sea Level Pressure  
Sea Level Pressure 29.77 in    
Wind  
Wind Speed 12 mph ()    
Max Wind Speed 29 mph    
Max Gust Speed 36 mph    
Visibility 5.8 miles    
Events      
T = Trace of Precipitation, MM = Missing Value Source: Averaged Metar Reports

Daily Weather History Graph

Daily Weather History Graph

Search for Another Location

Airport or City:

Trip Planner

Search our weather history database for the weather conditions in past years. The results will help you decide how hot, cold, wet, or windy it might be!

Date:

Astronomy

May. 04, 2014 Rise Set
Actual Time 4:56 AM AST 6:06 PM AST
Civil Twilight 4:32 AM AST 6:30 PM AST
Nautical Twilight 4:03 AM AST 6:59 PM AST
Astronomical Twilight 3:34 AM AST 7:29 PM AST
Moon 9:02 AM AST (5/4) 10:35 PM AST (5/4)
Length of Visible Light 13h 58m
Length of Day
13h 09m
Waxing Crescent, 25% of the Moon is Illuminated
May 4
Waxing Crescent
May 7
First Quarter
May 14
Full
May 21
Last Quarter
May 28
New

Hourly Weather History & Observations

Time (AST) Temp. Heat Index Dew Point Humidity Pressure Visibility Wind Dir Wind Speed Gust Speed Precip Events Conditions
12:58 AM 78.6 °F - 58.3 °F 50% 29.73 in 6.2 mi NW 2.3 mph - N/A   Clear
1:58 AM 76.3 °F - 57.0 °F 51% 29.73 in 6.2 mi WNW 3.5 mph - N/A   Clear
2:58 AM 74.7 °F - 58.1 °F 56% 29.73 in 6.2 mi West 5.8 mph - N/A   Clear
3:58 AM 74.3 °F - 59.9 °F 61% 29.73 in 6.2 mi West 6.9 mph - N/A   Clear
4:58 AM 73.9 °F - 62.8 °F 68% 29.75 in 6.2 mi West 10.4 mph - N/A   Clear
5:58 AM 76.5 °F - 69.3 °F 78% 29.77 in 6.2 mi West 8.1 mph - N/A   Clear
6:58 AM 81.5 °F 84.2 °F 67.8 °F 63% 29.80 in 6.2 mi WNW 12.7 mph - N/A   Clear
7:58 AM 87.4 °F 86.7 °F 58.6 °F 38% 29.81 in 6.2 mi WNW 16.1 mph - N/A   Clear
8:36 AM 89.6 °F 87.7 °F 55.4 °F 31% 29.81 in 3.7 mi NW 25.3 mph 32.2 mph N/A   Widespread Dust
8:58 AM 87.6 °F 86.7 °F 58.6 °F 37% 29.78 in 3.7 mi NNW 26.5 mph - N/A   Widespread Dust
9:58 AM 88.7 °F 86.9 °F 55.4 °F 32% 29.78 in 5.0 mi NNW 19.6 mph - N/A   Widespread Dust
10:18 AM 91.4 °F 89.4 °F 55.4 °F 29% 29.77 in 3.7 mi NNW 28.8 mph 35.7 mph N/A   Widespread Dust
10:58 AM 95.0 °F 93.0 °F 55.4 °F 26% 29.76 in 5.0 mi North 26.5 mph 32.2 mph N/A   Widespread Dust
11:58 AM 98.1 °F - 46.0 °F 17% 29.76 in 6.2 mi North 23.0 mph - N/A   Partly Cloudy
12:58 PM 99.1 °F - 44.6 °F 16% 29.75 in 6.2 mi North 24.2 mph - N/A   Clear
1:58 PM 98.8 °F - 45.5 °F 16% 29.75 in 6.2 mi North 23.0 mph 28.8 mph N/A   Clear
2:58 PM 97.2 °F - 46.2 °F 18% 29.73 in 6.2 mi NNW 21.9 mph - N/A   Clear
3:58 PM 95.4 °F - 46.8 °F 19% 29.73 in 6.2 mi NNW 20.7 mph - N/A   Clear
4:58 PM 92.8 °F - 47.5 °F 21% 29.75 in 6.2 mi NNW 23.0 mph - N/A   Clear
5:58 PM 88.9 °F - 48.0 °F 24% 29.75 in 6.2 mi North 21.9 mph - N/A   Clear
6:58 PM 85.8 °F - 52.2 °F 31% 29.77 in 6.2 mi North 16.1 mph - N/A   Clear
7:58 PM 84.9 °F - 46.9 °F 27% 29.78 in 6.2 mi North 16.1 mph - N/A   Clear
8:58 PM 83.1 °F - 44.4 °F 26% 29.80 in 6.2 mi NNW 15.0 mph - N/A   Clear
9:58 PM 81.0 °F - 48.9 °F 33% 29.81 in 6.2 mi NNW 9.2 mph - N/A   Clear
10:58 PM 79.2 °F - 54.0 °F 42% 29.80 in 6.2 mi NW 8.1 mph - N/A   Clear
11:58 PM 77.9 °F - 55.9 °F 47% 29.78 in 6.2 mi West 8.1 mph - N/A   Clear